Weather in Anos

Russia / Altai Republic     51°29′59″N   85°56′43″E
temp.,
°C
wind,
m/s
gust,
m/s
humid.,
%
clouds,
%
prec.,
mm/h
press.,
hPa
HPBL,
m
4 march, thu
thu401:00−14sse119596 0.8 103020
04:00−15sse239167 0.0 103130
07:00−17sse338735 0.0 103275
10:00−13sse367846 0.0 1030254
13:00−7sse356972 0.0 1027411
16:00−4sse246695 0.0 1024481
19:00−8sse228150 0.0 102521
22:00−11sse238425 0.0 102533
5 march, fri
fri501:00−13sse338417 0.0 102553
04:00−13sse358542 0.0 102496
07:00−11sse357871 0.0 1021194
10:00−10sse4674100 0.0 1019224
13:00−4sse4774100 0.1 1020378
16:00+1sw51167100 0.4 10221631
19:00−3ssw31077100 1.2 1026385
22:00−8sse348066 0.0 102992
6 march, sat
sat601:00−9sse358283 0.0 1030134
04:00−9sse4780100 0.0 1030221
07:00−10sse478098 0.0 1030214
10:00−8sse4773100 0.0 1028277
13:00−3sse3769100 0.0 1025438
16:000sse3665100 0.0 1021594
19:00−3sse2379100 0.0 102237
22:00−6sse2382100 0.0 102339
7 march, sun
sun701:00−8sse338294 0.0 102461
04:00−10sse33843 0.0 102380
07:00−9sse357952 0.0 1024132
10:00−7sse3572100 0.0 1023211
13:00−1sse2467100 0.0 1020308
16:00+1sse2471100 0.0 1018315
19:00−3sse2282100 0.0 101921
22:00−5sse2382100 0.0 102140
8 march, mon
mon801:00−6sse3382100 0.0 102151
04:00−8sse338557 0.0 102063
07:00−8sse338228 0.0 102180
10:00−4sse35727 0.0 1019200
13:00+1sse357243 0.0 1017272
16:00+3sse2575100 0.0 1017251
19:00+1sse2375100 0.0 101837
22:00−1sse2279100 0.0 102027